This demonstration page uses our WeatherBlox Daily Observations layout. Learn more.

Left ArrowRight Arrow

39.95238, -75.16362

Hourly Observations for August 16, 2016

Temp ( °F °C ) Dew Point ( °F °C ) Humidity (%) Winds ( mph kmh ) Pressure ( in mb ) Visibility ( mi km ) Precip ( " mm )
12:54 am 00:54 Mostly Cloudy 81 27.2 75 23.9 82 82 SSW 10 17 30.19 1022 10 16 0.00 0.00
1:54 am 01:54 Cloudy 79 26.1 74 23.3 85 85 SW 13 20 30.20 1023 10 16 0.00 0.00
2:54 am 02:54 Cloudy 79 26.1 74 23.3 85 85 SW 9 15 30.20 1023 10 16 0.00 0.00
3:54 am 03:54 Mostly Cloudy 77 25 72 22.2 85 85 SSE 6 9 30.18 1022 10 16 0.00 0.00
4:54 am 04:54 Mostly Cloudy 77 25 71 21.7 82 82 S 5 7 30.17 1022 10 16 0.00 0.00
5:54 am 05:54 Mostly Cloudy 77 25 71 21.7 82 82 SSW 5 7 30.18 1022 10 16 0.00 0.00
6:54 am 06:54 Mostly Cloudy 78 25.6 71 21.7 79 79 SW 3 6 30.19 1022 10 16 0.00 0.00
7:54 am 07:54 Partly Cloudy 78 25.6 71 21.7 79 79 SSW 5 7 30.19 1022 10 16 0.00 0.00
8:54 am 08:54 Partly Cloudy 81 27.2 70 21.1 69 69 SSW 6 9 30.19 1022 10 16 0.00 0.00
9:54 am 09:54 Partly Cloudy 83 28.3 70 21.1 65 65 S 9 15 30.19 1022 10 16 0.00 0.00
10:54 am 10:54 Mostly Cloudy 85 29.4 71 21.7 63 63 S 10 17 30.19 1022 10 16 0.00 0.00
11:54 am 11:54 Mostly Cloudy 87 30.6 72 22.2 61 61 SSW 12 19 30.16 1022 10 16 0.00 0.00
12:50 pm 12:50 Mostly Cloudy 88 31 73 23 62 62 SSW 12 19 30.15 1021 10 16 0.00 0.00
12:54 pm 12:54 Mostly Cloudy 88 31.1 74 23.3 63 63 SSW 14 22 30.15 1021 10 16 0.00 0.00
1:54 pm 13:54 Mostly Cloudy 89 31.7 75 23.9 63 63 SSW 10 17 30.13 1020 10 16 0.00 0.00
2:29 pm 14:29 Mostly Cloudy 91 32.8 75 23.9 59 59 SSW 13 20 30.12 1020 10 16 0.00 0.00
2:54 pm 14:54 Mostly Cloudy 91 32.8 74 23.3 57 57 SW 16 26 30.09 1019 10 16 0.00 0.00
3:54 pm 15:54 Mostly Cloudy 93 33.9 74 23.3 54 54 SW 13 20 30.07 1018 10 16 0.00 0.00
4:54 pm 16:54 Mostly Cloudy 94 34.4 75 23.9 54 54 SSW 14 22 30.06 1018 10 16 0.00 0.00
5:54 pm 17:54 Mostly Cloudy 93 33.9 75 23.9 56 56 SSW 10 17 30.05 1018 10 16 0.00 0.00
6:54 pm 18:54 Mostly Cloudy 90 32.2 75 23.9 62 62 SSW 12 19 30.03 1017 10 16 0.00 0.00
7:54 pm 19:54 Mostly Cloudy 90 32.2 74 23.3 59 59 SSW 9 15 30.03 1017 10 16 0.00 0.00
8:54 pm 20:54 Mostly Cloudy 88 31.1 75 23.9 66 66 SSW 12 19 30.04 1017 10 16 0.00 0.00
9:54 pm 21:54 Mostly Cloudy 87 30.6 75 23.9 67 67 SSW 14 22 30.03 1017 10 16 0.00 0.00
10:54 pm 22:54 Mostly Cloudy 87 30.6 76 24.4 70 70 SSW 17 28 30.04 1017 10 16 0.00 0.00
11:54 pm 23:54 Mostly Cloudy 86 30 77 25 75 75 SSW 13 20 30.04 1017 10 16 0.00 0.00

Powered by AerisWeather